FW5771 Shelton WA US current weather conditions

sailwx.info

Wind from 218 at 0 knots gusting 12

Air temperature 8.3° C
Dewpoint 7.4° C

Last reported at 2020-Jan-26 15:01 UTC.
Time now 2020-Jan-26 16:01 UTC

Location: N 47°09' W 123°02'.
View on Google Maps.

See reports from other nearby stations

  
Tides and Currents Weather Stations Pressure Air Temp Water Temp Dewpoint Dewpoint Depression Visibility Wind Speed Wind Dir Waves Ship Positions
date/time (UTC)wind fromknots sea level pressurealtimeterstation pressurevisibilityair tempwater tempwave heightnotes
2020-Jan-26 15:01 218 0 gusting 12 8.3
2020-Jan-26 14:47 257 3 gusting 12 8.3
2020-Jan-26 14:31 213 8.9
2020-Jan-26 14:16 188 8.9
2020-Jan-26 14:02 210 1 gusting 6 8.9
2020-Jan-26 13:46 191 8.3
2020-Jan-26 13:32 159 0 gusting 3 8.3
2020-Jan-26 13:16 168 8.3
2020-Jan-26 13:01 203 8.3
2020-Jan-26 12:47 193 7.8
2020-Jan-26 12:31 080 7.8
2020-Jan-26 12:17 080 7.8
2020-Jan-26 12:00 080 7.8
2020-Jan-26 11:46 080 7.8
2020-Jan-26 11:30 080 7.8
2020-Jan-26 11:15 080 7.8
2020-Jan-26 11:00 080 7.8
2020-Jan-26 10:46 095 7.8
2020-Jan-26 10:31 095 7.8
2020-Jan-26 10:15 095 7.8
2020-Jan-26 10:01 095 7.8
2020-Jan-26 09:45 095 7.8
2020-Jan-26 09:30 095 7.8
2020-Jan-26 09:15 095 7.8
2020-Jan-26 09:00 095 7.8
2020-Jan-26 08:45 089 7.8
2020-Jan-26 08:30 078 1 gusting 4 7.8
2020-Jan-26 08:15 085 1 gusting 3 7.8
2020-Jan-26 08:00 056 1 gusting 5 7.8
2020-Jan-26 07:48 051 0 gusting 3 7.8
2020-Jan-26 07:32 360 0 gusting 2 7.2
2020-Jan-26 07:19 119 7.2
2020-Jan-26 07:01 239 0 gusting 5 7.2
2020-Jan-26 06:47 123 7.2
2020-Jan-26 06:33 123 7.2
2020-Jan-26 06:18 140 0 gusting 4 7.2
2020-Jan-26 06:01 286 3 gusting 6 7.2
2020-Jan-26 05:47 189 7.2
2020-Jan-26 05:33 193 7.2
2020-Jan-26 05:16 167 7.2
2020-Jan-26 05:01 167 7.2
2020-Jan-26 04:46 121 7.2
2020-Jan-26 04:31 103 7.2
2020-Jan-26 04:16 103 7.2
2020-Jan-26 04:03 103 7.2
2020-Jan-26 03:46 103 7.8
2020-Jan-26 03:30 103 7.8
2020-Jan-26 03:17 067 7.8
2020-Jan-26 03:02 059 1 gusting 4 7.8
2020-Jan-26 02:46 180 7.8
2020-Jan-26 02:31 180 7.8
2020-Jan-26 02:17 180 7.8
2020-Jan-26 02:01 180 8.3
2020-Jan-26 01:46 180 8.3
2020-Jan-26 01:30 180 8.3
2020-Jan-26 01:16 230 8.9
2020-Jan-26 01:01 233 8.9
2020-Jan-26 00:46 250 8.9
2020-Jan-26 00:31 250 9.4
2020-Jan-26 00:16 250 9.4
2020-Jan-26 00:00 250 10.0
2020-Jan-25 23:45 250 10.0
2020-Jan-25 23:30 263 10.0
2020-Jan-25 23:16 188 10.0
2020-Jan-25 23:00 188 10.6
2020-Jan-25 22:45 188 10.6
2020-Jan-25 22:30 191 10.6
2020-Jan-25 22:15 244 10.6
2020-Jan-25 22:00 244 0 gusting 3 10.0
2020-Jan-25 21:46 200 10.0
2020-Jan-25 21:30 258 1 gusting 6 10.6
2020-Jan-25 21:15 229 10.6
2020-Jan-25 21:00 207 10.0
2020-Jan-25 20:45 285 1 gusting 3 10.0
2020-Jan-25 20:30 234 10.0
2020-Jan-25 20:16 236 10.0
2020-Jan-25 20:00 286 9.4
2020-Jan-25 19:45 292 9.4
2020-Jan-25 19:15 355 8.9
2020-Jan-25 19:02 023 8.9
2020-Jan-25 18:47 360 8.3
2020-Jan-25 18:32 087 8.3
2020-Jan-25 18:17 087 7.8
2020-Jan-25 18:01 087 7.8
2020-Jan-25 17:46 057 1 gusting 3 7.8
2020-Jan-25 17:34 064 7.8
2020-Jan-25 17:17 038 1 gusting 3 7.8
2020-Jan-25 17:03 092 7.8
2020-Jan-25 16:46 081 7.8
2020-Jan-25 16:30 062 7.8
2020-Jan-25 16:17 092 7.8
2020-Jan-25 16:01 086 7.8
2020-Jan-25 15:46 113 0 gusting 2 7.8
2020-Jan-25 15:31 046 7.8
2020-Jan-25 15:15 046 7.8
2020-Jan-25 15:02 065 0 gusting 2 7.8
2020-Jan-25 14:46 040 7.8
2020-Jan-25 14:31 052 7.8
2020-Jan-25 14:17 059 1 gusting 4 7.8
2020-Jan-25 14:02 071 7.8
2020-Jan-25 13:46 055 7.8
2020-Jan-25 13:31 062 7.8
2020-Jan-25 13:16 059 0 gusting 3 7.8
2020-Jan-25 13:01 030 0 gusting 2 7.8
2020-Jan-25 12:46 124 7.8
2020-Jan-25 12:31 103 7.8
2020-Jan-25 12:15 028 0 gusting 3 7.8
2020-Jan-25 12:00 094 7.8
2020-Jan-25 11:46 094 7.8
2020-Jan-25 11:31 094 7.8
2020-Jan-25 11:15 094 7.8
2020-Jan-25 11:01 094 8.3
2020-Jan-25 10:45 094 8.3
2020-Jan-25 10:30 094 8.3
2020-Jan-25 10:15 094 8.3
2020-Jan-25 10:00 094 8.3
2020-Jan-25 09:46 102 1 gusting 3 8.3
2020-Jan-25 09:31 084 8.3
2020-Jan-25 09:15 084 8.3
2020-Jan-25 09:00 086 8.3
2020-Jan-25 08:46 086 8.3
2020-Jan-25 08:30 086 8.3
2020-Jan-25 08:15 086 8.3
2020-Jan-25 08:00 086 8.3
2020-Jan-25 07:45 086 8.3
2020-Jan-25 07:30 055 8.3
2020-Jan-25 07:15 096 8.3
2020-Jan-25 07:00 096 8.3
2020-Jan-25 06:45 096 8.3
2020-Jan-25 06:30 097 8.3
2020-Jan-25 06:15 076 8.3
2020-Jan-25 06:00 128 8.3
2020-Jan-25 05:48 128 8.3
2020-Jan-25 05:32 128 8.9
2020-Jan-25 05:16 128 8.9
2020-Jan-25 05:02 128 8.9
2020-Jan-25 04:47 128 8.9
2020-Jan-25 04:32 128 8.9
2020-Jan-25 04:17 128 8.9
2020-Jan-25 04:02 128 8.9
2020-Jan-25 03:48 128 8.9
2020-Jan-25 03:31 128 8.9
2020-Jan-25 03:17 128 8.9
2020-Jan-25 03:02 128 8.9
2020-Jan-25 02:46 128 8.9
2020-Jan-25 02:31 128 8.9
2020-Jan-25 02:16 124 8.9
2020-Jan-25 02:01 124 8.9
2020-Jan-25 01:48 199 8.9
2020-Jan-25 01:31 199 8.9
2020-Jan-25 01:16 199 9.4
2020-Jan-25 01:02 199 9.4
2020-Jan-25 00:46 199 9.4
2020-Jan-25 00:31 194 9.4
2020-Jan-25 00:16 207 0 gusting 5 9.4
2020-Jan-25 00:02 198 10.0
2020-Jan-24 23:46 216 10.0
2020-Jan-24 23:33 218 1 gusting 4 10.0
2020-Jan-24 23:18 190 0 gusting 2 10.0
2020-Jan-24 23:01 194 10.0
2020-Jan-24 22:46 116 0 gusting 5 10.0
2020-Jan-24 22:32 194 1 gusting 6 10.0
2020-Jan-24 22:16 208 10.0
2020-Jan-24 22:01 305 10.0
2020-Jan-24 21:46 215 0 gusting 7 10.6
2020-Jan-24 21:31 225 10.6
2020-Jan-24 21:16 152 0 gusting 8 10.6
2020-Jan-24 21:02 222 1 gusting 8 10.6
2020-Jan-24 20:46 241 0 gusting 6 10.6
2020-Jan-24 20:31 236 1 gusting 7 10.0
2020-Jan-24 20:16 222 10.0
2020-Jan-24 20:01 181 1 gusting 7 10.0
2020-Jan-24 19:46 185 1 gusting 8 10.0
2020-Jan-24 19:31 236 10.0
2020-Jan-24 19:16 221 9.4
2020-Jan-24 19:02 183 2 gusting 7 9.4
2020-Jan-24 18:45 222 9.4
2020-Jan-24 18:30 236 1 gusting 10 9.4
2020-Jan-24 18:16 264 1 gusting 11 9.4
2020-Jan-24 18:00 080 0 gusting 6 10.0
2020-Jan-24 17:45 196 0 gusting 3 9.4
2020-Jan-24 17:30 173 0 gusting 4 9.4
2020-Jan-24 17:15 139 9.4
2020-Jan-24 17:00 229 8.9
2020-Jan-24 16:45 229 8.9
2020-Jan-24 16:30 229 8.3
2020-Jan-24 16:15 229 8.3
2020-Jan-24 16:00 229 8.3